Location: Anglesey
(53.1800°N, 4.2200°W)
Time: 08:52:55
(UTC+01:00)

Tiangong 2 - Pass Details

Date: 14 October 2017
Orbit: 388 x 391 km, 42.8° (Epoch: 23 October)

Event Time Altitude Azimuth Distance (km) Brightness Sun altitude
Exits shadow 06:53:49 - 233° (SW) 1,780 4.0 -7.9°
Reaches altitude 10° 06:55:16 10° 215° (SW) 1,421 3.6 -7.7°
Maximum altitude 06:56:43 13° 187° (S) 1,277 3.7 -7.5°
Drops below altitude 10° 06:58:11 10° 160° (SSE) 1,421 4.3 -7.3°
Sets 07:01:10 0° 130° (SE) 2,276 6.0 -6.8°
